Location: *
(46.1200°N, 11.2700°E)
Time: 06:52:57
(UTC+00:00)

Cosmos 1727 Rocket - Pass Details

Date: 02 March 2021
Orbit: 961 x 996 km, 82.9° (Epoch: 19 April)

Event Time Altitude Azimuth Distance (km) Brightness Sun altitude
Rises 20:01:21 0° 348° (NNW) 3,658 7.5 -31.0°
Reaches altitude 10° 20:03:53 10° 344° (NNW) 2,708 6.8 -31.4°
Maximum altitude 20:09:56 58° 268° (W) 1,116 4.4 -32.4°
Enters shadow 20:10:38 55° 240° (WSW) 1,153 4.4 -32.5°
